User: anonymous   Login
Location: Unspecified
(0.0000°N, 0.0000°E)
Time: 23:11:10
(UTC+00:00)
Language:

MUOS 5 - Orbit

View from above orbital plane
View from above orbital plane
View from above satellite
View from above satellite

Ground track
Ground track

The orbit data is extracted from the following two-line orbital elements,

1 41622U 16041A   19081.62854623 -.00000188 +00000-0 +00000-0 0  9990
2 41622 008.1715 311.8992 0199891 206.3576 142.8336 01.00271175010572
Epoch (UTC): 22 March 2019 15:05:06
Eccentricity: 0.0199891
inclination: 8.1715°
perigee height: 34943 km
apogee height: 36629 km
right ascension of ascending node: 311.8992°
argument of perigee: 206.3576°
revolutions per day: 1.00271175
mean anomaly at epoch: 142.8336°
orbit number at epoch: 1057

The dashed part of the orbit path shows where the satellite is in the earth's shadow,  

DLR